EW4849 Weather Reports


time (UTC)temp
F
wind
direction
speed
knots
gust
knots
rain 1hr
in
rain 24hr
in
rain mn
in
humidity
%
barometer
mb
20260507170006 60 248 7.0 11.3 0.00 0.00 0.00 60 1007.9
20260507164505 59 209 7.8 11.3 0.00 0.00 0.00 61 1008.0
20260507163001 59 230 6.1 10.4 0.00 0.00 0.00 65 1008.0
20260507161546 57 195 8.7 12.2 0.00 0.00 0.00 65 1007.9
20260507160042 56 244 8.7 13.9 0.00 0.00 0.00 69 1007.9
20260507154539 56 195 8.7 14.8 0.00 0.00 0.00 71 1007.9
20260507153036 55 237 7.8 13.0 0.00 0.00 0.00 73 1007.9
20260507151533 54 217 7.8 14.8 0.00 0.00 0.00 75 1007.9
20260507150032 53 202 10.4 15.6 0.00 0.00 0.00 77 1007.8
20260507144534 53 207 7.8 12.2 0.00 0.00 0.00 79 1007.8
20260507143033 51 188 7.8 12.2 0.00 0.00 0.00 81 1007.7
20260507141517 51 169 8.7 13.0 0.00 0.00 0.00 80 1007.6
20260507140024 51 196 9.6 15.6 0.00 0.00 0.00 81 1007.3
20260507134513 51 181 8.7 13.0 0.00 0.00 0.00 81 1007.3
20260507133012 51 186 5.2 7.8 0.00 0.00 0.00 81 1007.3
20260507131511 51 178 6.1 13.0 0.00 0.00 0.00 80 1007.1
20260507130008 51 193 7.8 11.3 0.00 0.00 0.00 81 1007.0
20260507124512 50 162 7.8 10.4 0.00 0.00 0.00 83 1007.0
20260507123004 51 181 6.1 10.4 0.00 0.00 0.00 83 1007.1
20260507121504 50 197 7.0 9.6 0.00 0.00 0.00 86 1007.0
20260507120048 50 148 0.9 2.6 0.00 0.00 0.00 85 1007.2
20260507114546 51 225 0.9 4.3 0.00 0.00 0.00 84 1007.2
20260507113045 50 252 0.0 7.0 0.00 0.00 0.00 84 1007.2
20260507111547 50 235 3.5 7.8 0.00 0.00 0.00 85 1007.1
20260507110046 51 213 3.5 7.0 0.00 0.00 0.00 82 1007.1
20260507104540 51 159 0.9 3.5 0.00 0.00 0.00 82 1007.2
20260507103037 52 219 3.5 7.8 0.00 0.00 0.00 81 1007.2
20260507101555 52 175 2.6 7.0 0.00 0.00 0.00 81 1007.1
20260507100027 53 217 3.5 7.0 0.00 0.00 0.00 80 1007.2
20260507094514 53 221 4.3 11.3 0.00 0.00 0.00 78 1007.0
20260507093054 53 229 7.0 11.3 0.00 0.00 0.00 78 1006.9
20260507091602 53 229 7.0 11.3 0.00 0.00 0.00 78 1006.9
20260507090055 54 214 4.3 7.8 0.00 0.00 0.00 76 1007.1
20260507084536 54 207 4.3 9.6 0.00 0.00 0.00 74 1007.0
20260507083034 54 181 5.2 8.7 0.00 0.00 0.00 72 1006.9
20260507081548 54 212 5.2 8.7 0.00 0.00 0.00 73 1006.7
20260507080029 54 221 5.2 9.6 0.00 0.00 0.00 72 1006.7
20260507074530 54 259 4.3 9.6 0.00 0.00 0.00 71 1006.5
20260507073026 55 229 6.1 10.4 0.00 0.00 0.00 70 1006.4
20260507071525 55 221 5.2 10.4 0.00 0.00 0.00 68 1006.4
20260507070013 55 218 5.2 7.8 0.00 0.00 0.00 67 1006.4
20260507064514 56 201 3.5 7.0 0.00 0.00 0.00 67 1006.5
20260507063010 56 207 3.5 7.8 0.00 0.00 0.00 66 1006.4
20260507061526 56 225 3.5 5.2 0.00 0.00 0.00 65 1006.3
20260507060010 57 167 2.6 7.8 0.00 0.00 0.00 65 1006.2
20260507054509 57 215 5.2 7.8 0.00 0.00 0.00 64 1006.1
20260507053011 57 204 4.3 7.0 0.00 0.00 0.00 64 1006.1
20260507051508 57 234 3.5 7.0 0.00 0.00 0.00 63 1006.1
20260507050050 58 248 3.5 7.0 0.00 0.00 0.00 62 1006.2
20260507044550 59 215 5.2 9.6 0.00 0.00 0.00 59 1006.0
20260507043040 60 229 5.2 8.7 0.00 0.00 0.00 58 1005.9
20260507041537 61 210 5.2 12.2 0.00 0.00 0.00 57 1005.8
20260507040035 62 234 7.8 13.0 0.00 0.00 0.00 54 1005.6
20260507034536 63 244 8.7 15.6 0.00 0.00 0.00 53 1005.1
20260507033035 64 206 10.4 14.8 0.00 0.00 0.00 53 1004.9
20260507031533 65 215 8.7 13.9 0.00 0.00 0.00 53 1004.7
20260507030037 66 210 7.8 16.5 0.00 0.00 0.00 53 1004.6
20260507024534 67 217 10.4 15.6 0.00 0.00 0.00 50 1004.3
20260507023021 68 207 10.4 17.4 0.00 0.00 0.00 48 1004.3
20260507021520 68 214 11.3 17.4 0.00 0.00 0.00 47 1004.2
20260507020019 69 174 8.7 16.5 0.00 0.00 0.00 47 1004.1
20260507014519 70 203 9.6 14.8 0.00 0.00 0.00 47 1004.0
20260507013018 70 207 10.4 16.5 0.00 0.00 0.00 47 1003.9
20260507011523 71 226 11.3 15.6 0.00 0.00 0.00 46 1003.9
20260507010017 71 212 8.7 15.6 0.00 0.00 0.00 47 1003.9
20260507004517 72 188 9.6 16.5 0.00 0.00 0.00 45 1003.8
20260507003058 73 223 8.7 13.9 0.00 0.00 0.00 47 1003.7
20260507001605 73 264 10.4 14.8 0.00 0.00 0.00 46 1003.6
20260507000046 74 202 7.8 13.9 0.00 0.00 0.00 47 1003.7
20260506234545 74 239 9.6 14.8 0.00 0.00 0.00 46 1003.6
20260506233047 73 216 7.8 14.8 0.00 0.00 0.00 48 1003.7
20260506231544 74 231 8.7 13.9 0.00 0.00 0.00 46 1003.7
20260506230044 74 235 9.6 13.9 0.00 0.00 0.00 45 1003.7
20260506224543 74 211 11.3 15.6 0.00 0.00 0.00 43 1003.8
20260506223042 75 242 9.6 13.9 0.00 0.00 0.00 43 1004.1
20260506221544 76 238 7.8 14.8 0.00 0.00 0.00 44 1004.1
20260506220035 76 217 8.7 13.9 0.00 0.00 0.00 43 1004.2
20260506214528 76 201 9.6 13.0 0.00 0.00 0.00 44 1004.5
20260506213028 77 234 7.8 13.9 0.00 0.00 0.00 42 1004.7
20260506211526 76 251 7.8 14.8 0.00 0.00 0.00 41 1004.8
20260506210027 77 232 8.7 13.9 0.00 0.00 0.00 41 1004.8
20260506204527 77 247 8.7 13.9 0.00 0.00 0.00 39 1004.7
20260506203024 77 251 8.7 13.9 0.00 0.00 0.00 41 1004.7
20260506201538 77 262 8.7 13.9 0.00 0.00 0.00 44 1004.7
20260506200009 76 231 6.1 12.2 0.00 0.00 0.00 46 1004.8
20260506194506 75 189 9.6 14.8 0.00 0.00 0.00 45 1004.9
20260506193005 74 178 8.7 13.9 0.00 0.00 0.00 48 1005.1
20260506191600 74 205 7.8 18.2 0.00 0.00 0.00 50 1005.3
20260506190057 72 255 9.6 16.5 0.00 0.00 0.00 52 1005.5
20260506184556 71 230 9.6 15.6 0.00 0.00 0.00 53 1005.6
20260506183050 70 202 10.4 15.6 0.00 0.00 0.00 53 1005.7
20260506181548 69 180 11.3 15.6 0.00 0.00 0.00 55 1006.0
20260506180031 68 205 10.4 14.8 0.00 0.00 0.00 55 1006.3
20260506174529 68 224 7.8 13.0 0.00 0.00 0.00 60 1006.3
20260506173028 67 257 9.6 15.6 0.00 0.00 0.00 58 1006.4
20260506171532 67 212 7.8 14.8 0.00 0.00 0.00 61 1006.4